Regional Weather Roundup
Issued by NWS

Home | Current Version | Previous Version | Text Only | Print | Product List | Glossary On
Versions: 1 2 3 4 5 6 7 8 9 10 11 12 13 14 15 16 17 18 19 20 21 22 23 24 25 26 27 28 29 30 31 32 33 34 35 36 37 38 39 40 41 42 43 44 45 46 47 48 49 50
000
ASUS43 KLOT 012108
RWRIL

ILLINOIS REGIONAL WEATHER ROUNDUP
NATIONAL WEATHER SERVICE CHICAGO/ROMEOVILLE IL
400 PM CDT SUN MAY 01 2016

NOTE: "FAIR" INDICATES FEW OR NO CLOUDS BELOW 12,000 FEET WITH NO
SIGNIFICANT WEATHER AND/OR OBSTRUCTIONS TO VISIBILITY.

* THESE STATIONS ARE NOT UNDER NWS QUALITY CONTROL. THEY ALSO MAY NOT
  REPORT WEATHER SUCH AS PRECIPITATION OR FOG.

ILZ001-002-007-009-015-016-024-012200-
NORTHWEST ILLINOIS

CITY           SKY/WX    TMP DP  RH WIND       PRES   REMARKS
MOLINE         LGT RAIN  51  46  83 NE10      29.97F
STERLING*      CLOUDY    52  46  82 E14       29.98F
SAVANNA*       CLOUDY    51  47  87 E9        29.99F
$$

ILZ003-004-008-010-011-017-018-012200-
NORTH CENTRAL ILLINOIS

CITY           SKY/WX    TMP DP  RH WIND       PRES   REMARKS
ROCKFORD       CLOUDY    53  45  74 NE9       30.03S
FREEPORT*      CLOUDY    54  46  76 E14       30.01F
ROCHELLE*      CLOUDY    50  46  87 NE10      30.01S
DE KALB*       CLOUDY    49  46  89 NE13      30.01R
$$

ILZ005-006-012>014-019>023-012200-
NORTHEAST ILLINOIS

CITY           SKY/WX    TMP DP  RH WIND       PRES   REMARKS
CHICAGO-OHARE  CLOUDY    48  44  86 NE14      29.99F
CHICAGO-MIDWAY CLOUDY    50  44  80 NE10      29.99F
AURORA         CLOUDY    52  46  80 NE12      30.00F
LANSING*       CLOUDY    50  46  87 N10       29.99S
JOLIET*        CLOUDY    53  47  82 NE13      29.98F
WAUKEGAN       CLOUDY    46  42  86 N9        30.03R
DUPAGE AIRPORT CLOUDY    50  44  80 NE12      29.99F
KANKAKEE*      CLOUDY    55  50  83 N10       29.96F
WHEELING       CLOUDY    47  43  86 NE12      30.02F
MORRIS*        CLOUDY    52  47  84 NE3       29.97F
ROMEOVILLE*    CLOUDY    51  46  82 NE10      29.98F
NORTHERLY ISL    N/A     45  43  93 N9          N/A
NORTHERLY ISL    N/A     45  43  93 N9          N/A
$$

LMZ740>746-012200-
SOUTHERN LAKE MICHIGAN

STATION/POSITION SKY/WX   TEMP    WIND        PRES    VSBY  WAVE
                          AIR SEA DIR/SP/G                  HT/PER
                          (F)     (DEG/KT/KT) (MB)    (MI)  (FT/S)
SOUTHERN BUOY              42 40   20/ 10/ 10 1016.4R         2/ 5
HARRISON CRIB              44     360/ 12/ 13   N/A
BURNHAM HARBOR             45     360/  8/ 12   N/A
CALUMET HARBOR             45     350/  8/  9 1015.4F
BURNS HARBOR               45      30/  9/ 11 1015.9F
MICHIGAN CITY              45     350/  9/ 10   N/A
ST. JOSEPH                 48 48                N/A           2/ 5
$$

ILZ025>027-034>036-040-047-049-050-058-095>099-012200-
WEST-CENTRAL ILLINOIS

CITY           SKY/WX    TMP DP  RH WIND       PRES   REMARKS
QUINCY         CLOUDY    55  52  89 NW5       29.95S
GALESBURG*     LGT RAIN  50  48  94 NE8       29.96F
MACOMB*        LGT RAIN  53  52  97 NE6       29.97F
JACKSONVILLE*  CLOUDY    58  55  87 NW7       29.92F
PITTSFIELD*    RAIN      58  56  92 N8        29.94S
$$

ILZ028>032-037-038-041>044-048-051>054-059>061-012200-
CENTRAL ILLINOIS

CITY           SKY/WX    TMP DP  RH WIND       PRES   REMARKS
PONTIAC        CLOUDY    56  53  91 NE10      29.95F
BLOOMINGTON    CLOUDY    57  56  97 NE9       29.93F FOG
DECATUR        CLOUDY    67  59  75 S8        29.90F
PEORIA         CLOUDY    54  50  86 NE7       29.95S FOG
LACON*         CLOUDY    53  48  84 N3        29.97R
LINCOLN*       CLOUDY    61  58  90 NE7       29.91F FOG
SPRINGFIELD    CLOUDY    62  58  86 W12       29.92S FOG
TAYLORVILLE    PTSUNNY   66  61  82 SW8       29.90F
$$

ILZ033-039-045-046-055>057-062-063-012200-
EAST-CENTRAL ILLINOIS

CITY           SKY/WX    TMP DP  RH WIND       PRES   REMARKS
CHAMPAIGN      PTSUNNY   68  61  78 E6        29.90F
RANTOUL*       CLOUDY    64  59  83 NE3       29.91F
MATTOON        MOSUNNY   70  59  68 CALM      29.89F
PARIS*         MOSUNNY   72  62  70 W7        29.90F
$$

ILZ079-100>102-012200-
SOUTHWEST ILLINOIS

CITY           SKY/WX    TMP DP  RH WIND       PRES   REMARKS
BELLEVILLE     SUNNY     73  60  61 VRB5      29.88F
CAHOKIA*       MOSUNNY   74  56  53 VRB6      29.89F
SPARTA*        MOSUNNY   73  60  62 W3        29.90F
$$

ILZ064>066-069>071-074>076-080>082-084>086-088>090-092>094-012200-
SOUTH-CENTRAL ILLINOIS

CITY           SKY/WX    TMP DP  RH WIND       PRES   REMARKS
CARBONDALE     SUNNY     78  60  53 SW8       29.88F
CAIRO*         MOSUNNY   78  66  66 SW9       29.90F HX  80
EFFINGHAM*     PTSUNNY   73  64  72 CALM      29.91F
MARION         PTSUNNY   77  63  61 W6        29.89F
MT. VERNON     PTSUNNY   75  61  60 SW7       29.89F
CENTRALIA*     MOSUNNY   74  63  67 W3        29.88F
SALEM*         MOSUNNY   74  60  59 SW6       29.88F
METROPOLIS*    MOSUNNY   80  68  67 W8        29.91S HX  82
$$

ILZ067-068-072-073-078-083-087-091-012200-
SOUTHEAST ILLINOIS

CITY           SKY/WX    TMP DP  RH WIND       PRES   REMARKS
LAWRENCEVILLE  MOSUNNY   78  61  55 W10       29.88F HX  80
FLORA*         MOSUNNY   78  62  58 SW9       29.89F HX  80
FAIRFIELD*     MOSUNNY   76  61  59 SW7       29.88F
HARRISBURG*    PTSUNNY   79  64  59 SW9       29.89F HX  81
ROBINSON*      MOSUNNY   73  63  71 S3        29.89S
CARMI*         MOSUNNY   77  64  63 W7        29.88F
$$

ABBREVIATIONS USED IN REMARKS
   TC - TEMPERATURE IN CELSIUS
  WCI - WIND CHILL INDEX
   HX - HEAT INDEX
  VSB - VISIBILITY
$$





USA.gov is the U.S. government's official web portal to all federal, state and local government web resources and services.